| time (UTC) | temp C | wind direction | speed KPH | gust KPH | rain 1hr cm | rain 24hr cm | rain mn cm | humidity % | barometer mb |
| 20260506013515 | 10 | 0.0 | 0.0 | 0.00 | 0.43 | 0.00 | 99 | 1003.3 | |
| 20260506012521 | 10 | 0.0 | 0.0 | 0.00 | 0.43 | 0.00 | 99 | 1003.2 | |
| 20260506011515 | 10 | 0.0 | 0.0 | 0.00 | 0.56 | 0.00 | 99 | 1003.0 | |
| 20260506010522 | 10 | 0.0 | 0.0 | 0.00 | 0.56 | 0.00 | 99 | 1003.1 | |
| 20260506005524 | 10 | 0.0 | 0.0 | 0.00 | 0.64 | 0.00 | 99 | 1003.5 | |
| 20260506004520 | 10 | 0.0 | 0.0 | 0.00 | 0.64 | 0.00 | 99 | 1003.5 | |
| 20260506003524 | 10 | 0.0 | 0.0 | 0.00 | 0.71 | 0.00 | 99 | 1003.5 | |
| 20260506002519 | 10 | 0.0 | 0.0 | 0.00 | 0.71 | 0.00 | 99 | 1003.5 | |
| 20260506001523 | 10 | 0.0 | 0.0 | 0.00 | 0.71 | 0.00 | 99 | 1003.7 | |
| 20260506000519 | 10 | 0.0 | 0.0 | 0.00 | 0.71 | 0.00 | 99 | 1003.7 | |
| 20260505235522 | 10 | 0.0 | 0.0 | 0.00 | 0.71 | 0.00 | 99 | 1003.8 | |
| 20260505234516 | 10 | 0.0 | 0.0 | 0.00 | 0.71 | 0.00 | 99 | 1003.8 | |
| 20260505233521 | 10 | 0.0 | 0.0 | 0.00 | 0.71 | 0.00 | 99 | 1003.9 | |
| 20260505232525 | 10 | 0.0 | 0.0 | 0.00 | 0.71 | 0.00 | 99 | 1003.9 | |
| 20260505231521 | 10 | 0.0 | 0.0 | 0.00 | 0.71 | 0.00 | 99 | 1003.9 | |
| 20260505230516 | 10 | 0.0 | 0.0 | 0.00 | 0.71 | 0.00 | 99 | 1003.9 | |
| 20260505225521 | 10 | 0.0 | 0.0 | 0.00 | 0.71 | 0.00 | 99 | 1004.1 | |
| 20260505224518 | 10 | 0.0 | 0.0 | 0.00 | 0.71 | 0.00 | 99 | 1004.1 | |
| 20260505223523 | 10 | 0.0 | 0.0 | 0.00 | 0.71 | 0.00 | 99 | 1004.1 | |
| 20260505222518 | 10 | 0.0 | 0.0 | 0.00 | 0.71 | 0.00 | 99 | 1004.2 | |
| 20260505221521 | 10 | 0.0 | 0.0 | 0.00 | 0.71 | 0.00 | 99 | 1004.6 | |
| 20260505220515 | 10 | 0.0 | 0.0 | 0.00 | 0.71 | 0.00 | 99 | 1004.6 | |
| 20260505215519 | 10 | 0.0 | 0.0 | 0.00 | 0.79 | 0.79 | 99 | 1004.6 | |
| 20260505214524 | 10 | 0.0 | 0.0 | 0.00 | 0.79 | 0.79 | 99 | 1004.6 | |
| 20260505213520 | 10 | 0.0 | 0.0 | 0.00 | 0.79 | 0.79 | 99 | 1004.5 | |
| 20260505212524 | 11 | 0.0 | 0.0 | 0.00 | 0.79 | 0.79 | 99 | 1004.5 | |
| 20260505211519 | 11 | 0.0 | 0.0 | 0.00 | 0.79 | 0.79 | 99 | 1004.5 | |
| 20260505210523 | 11 | 0.0 | 0.0 | 0.00 | 0.79 | 0.79 | 99 | 1004.5 | |
| 20260505205519 | 11 | 0.0 | 0.0 | 0.00 | 0.79 | 0.79 | 99 | 1004.9 | |
| 20260505204523 | 11 | 0.0 | 0.0 | 0.00 | 0.79 | 0.79 | 99 | 1004.9 | |
| 20260505203516 | 11 | 0.0 | 0.0 | 0.00 | 0.79 | 0.79 | 99 | 1004.8 | |
| 20260505202521 | 11 | 0.0 | 0.0 | 0.00 | 0.79 | 0.79 | 99 | 1004.8 | |
| 20260505201517 | 11 | 0.0 | 0.0 | 0.00 | 0.79 | 0.79 | 99 | 1004.8 | |
| 20260505200523 | 11 | 0.0 | 0.0 | 0.00 | 0.79 | 0.79 | 99 | 1004.8 | |
| 20260505195519 | 11 | 0.0 | 0.0 | 0.00 | 0.84 | 0.79 | 99 | 1004.7 | |
| 20260505194523 | 11 | 0.0 | 0.0 | 0.00 | 0.84 | 0.79 | 99 | 1004.6 | |
| 20260505193519 | 11 | 0.0 | 0.0 | 0.00 | 0.84 | 0.79 | 99 | 1004.5 | |
| 20260505192523 | 11 | 0.0 | 0.0 | 0.00 | 0.99 | 0.79 | 99 | 1004.5 | |
| 20260505191516 | 11 | 0.0 | 0.0 | 0.00 | 1.07 | 0.79 | 99 | 1004.6 | |
| 20260505190522 | 11 | 0.0 | 0.0 | 0.00 | 1.12 | 0.79 | 99 | 1004.6 | |
| 20260505185524 | 11 | 0.0 | 0.0 | 0.00 | 1.19 | 0.79 | 99 | 1004.5 | |
| 20260505184521 | 11 | 0.0 | 0.0 | 0.00 | 1.27 | 0.79 | 99 | 1004.5 | |
| 20260505183525 | 11 | 0.0 | 0.0 | 0.00 | 1.35 | 0.79 | 99 | 1004.5 | |
| 20260505182520 | 11 | 0.0 | 0.0 | 0.00 | 1.35 | 0.79 | 99 | 1004.5 | |
| 20260505181524 | 11 | 0.0 | 0.0 | 0.00 | 1.35 | 0.79 | 99 | 1004.5 | |
| 20260505180520 | 11 | 0.0 | 0.0 | 0.00 | 1.42 | 0.79 | 99 | 1004.5 | |
| 20260505175523 | 11 | 0.0 | 0.0 | 0.00 | 1.42 | 0.79 | 99 | 1004.5 | |
| 20260505174519 | 11 | 0.0 | 0.0 | 0.00 | 1.42 | 0.79 | 99 | 1004.5 | |
| 20260505173525 | 12 | 0.0 | 0.0 | 0.00 | 1.42 | 0.79 | 99 | 1004.6 | |
| 20260505172519 | 12 | 0.0 | 0.0 | 0.00 | 1.42 | 0.79 | 99 | 1004.7 | |
| 20260505171523 | 12 | 0.0 | 0.0 | 0.00 | 1.42 | 0.79 | 99 | 1005.0 | |
| 20260505170518 | 12 | 0.0 | 0.0 | 0.00 | 1.47 | 0.79 | 99 | 1005.0 | |
| 20260505165522 | 12 | 0.0 | 0.0 | 0.00 | 1.55 | 0.79 | 99 | 1005.0 | |
| 20260505164517 | 12 | 0.0 | 0.0 | 0.00 | 1.70 | 0.79 | 99 | 1005.1 | |
| 20260505163523 | 12 | 0.0 | 0.0 | 0.00 | 1.75 | 0.79 | 99 | 1005.4 | |
| 20260505162526 | 12 | 0.0 | 0.0 | 0.00 | 1.75 | 0.79 | 99 | 1005.4 | |
| 20260505161522 | 12 | 0.0 | 0.0 | 0.00 | 1.75 | 0.79 | 99 | 1005.2 | |
| 20260505160518 | 12 | 0.0 | 0.0 | 0.00 | 1.75 | 0.79 | 99 | 1005.3 | |
| 20260505152517 | 12 | 0.0 | 0.0 | 0.00 | 1.75 | 0.79 | 99 | 1005.6 | |
| 20260505151522 | 12 | 0.0 | 0.0 | 0.00 | 1.75 | 0.79 | 99 | 1005.7 | |
| 20260505150518 | 12 | 0.0 | 0.0 | 0.00 | 1.75 | 0.79 | 99 | 1005.7 | |
| 20260505140524 | 12 | 0.0 | 0.0 | 0.00 | 1.75 | 0.79 | 99 | 1005.7 | |
| 20260505124521 | 12 | 0.0 | 0.0 | 0.00 | 1.75 | 0.79 | 99 | 1006.2 | |
| 20260505123524 | 12 | 0.0 | 0.0 | 0.00 | 1.75 | 0.79 | 99 | 1006.2 | |
| 20260505122518 | 12 | 0.0 | 0.0 | 0.00 | 1.75 | 0.79 | 99 | 1006.2 | |
| 20260505121524 | 11 | 0.0 | 0.0 | 0.00 | 1.75 | 0.79 | 99 | 1006.3 | |
| 20260505120519 | 12 | 0.0 | 0.0 | 0.00 | 1.75 | 0.79 | 99 | 1006.3 | |
| 20260505115523 | 11 | 0.0 | 0.0 | 0.00 | 1.75 | 0.79 | 99 | 1006.5 | |
| 20260505114520 | 11 | 0.0 | 0.0 | 0.00 | 1.75 | 0.79 | 99 | 1006.5 | |
| 20260505113523 | 11 | 0.0 | 0.0 | 0.00 | 1.75 | 0.79 | 99 | 1006.5 | |
| 20260505112517 | 11 | 0.0 | 0.0 | 0.08 | 1.75 | 0.79 | 99 | 1006.5 | |
| 20260505111522 | 11 | 0.0 | 0.0 | 0.08 | 1.75 | 0.79 | 99 | 1006.5 | |
| 20260505110516 | 11 | 0.0 | 0.0 | 0.08 | 1.75 | 0.79 | 99 | 1006.4 | |
| 20260505101521 | 11 | 0.0 | 0.0 | 0.08 | 1.70 | 0.71 | 99 | 1006.5 | |
| 20260505100516 | 11 | 0.0 | 0.0 | 0.08 | 1.70 | 0.71 | 99 | 1006.5 | |
| 20260505095521 | 11 | 0.0 | 0.0 | 0.08 | 1.70 | 0.71 | 99 | 1006.5 | |
| 20260505094516 | 11 | 0.0 | 0.0 | 0.00 | 1.63 | 0.64 | 99 | 1006.5 | |
| 20260505093522 | 11 | 0.0 | 0.0 | 0.00 | 1.63 | 0.64 | 99 | 1006.5 | |
| 20260505092518 | 11 | 0.0 | 0.0 | 0.00 | 1.63 | 0.64 | 99 | 1006.5 | |
| 20260505091523 | 11 | 0.0 | 0.0 | 0.00 | 1.63 | 0.64 | 99 | 1006.5 | |
| 20260505090518 | 11 | 0.0 | 0.0 | 0.00 | 1.63 | 0.64 | 99 | 1006.5 | |
| 20260505085523 | 11 | 0.0 | 0.0 | 0.00 | 1.63 | 0.64 | 99 | 1006.5 | |
| 20260505084518 | 11 | 0.0 | 0.0 | 0.00 | 1.63 | 0.64 | 99 | ||
| 20260505083524 | 11 | 0.0 | 0.0 | 0.00 | 1.63 | 0.64 | 99 | ||
| 20260505082519 | 11 | 0.0 | 0.0 | 0.00 | 1.63 | 0.64 | 99 | ||
| 20260505081523 | 11 | 0.0 | 0.0 | 0.00 | 1.63 | 0.64 | 99 | ||
| 20260505080518 | 11 | 0.0 | 0.0 | 0.00 | 1.63 | 0.64 | 99 | ||
| 20260505075522 | 11 | 0.0 | 0.0 | 0.00 | 1.63 | 0.64 | 99 | ||
| 20260505074526 | 11 | 0.0 | 0.0 | 0.00 | 1.63 | 0.64 | 99 | ||
| 20260505073522 | 11 | 0.0 | 0.0 | 0.00 | 1.63 | 0.64 | 99 | ||
| 20260505072518 | 11 | 0.0 | 0.0 | 0.00 | 1.63 | 0.64 | 99 | ||
| 20260505071523 | 11 | 0.0 | 0.0 | 0.00 | 1.63 | 0.64 | 99 | ||
| 20260505070519 | 11 | 0.0 | 0.0 | 0.00 | 1.63 | 0.64 | 99 | ||
| 20260505065521 | 11 | 0.0 | 0.0 | 0.00 | 1.63 | 0.64 | 99 | ||
| 20260505064526 | 11 | 0.0 | 0.0 | 0.00 | 1.63 | 0.64 | 99 | ||
| 20260505063522 | 12 | 0.0 | 0.0 | 0.00 | 1.63 | 0.64 | 99 | ||
| 20260505062517 | 12 | 0.0 | 0.0 | 0.00 | 1.63 | 0.64 | 99 | ||
| 20260505061523 | 12 | 0.0 | 0.0 | 0.00 | 1.63 | 0.64 | 99 | ||
| 20260505060518 | 12 | 0.0 | 0.0 | 0.00 | 1.63 | 0.64 | 99 | ||
| 20260505055522 | 12 | 0.0 | 0.0 | 0.00 | 1.63 | 0.64 | 99 | ||
| 20260505054526 | 12 | 0.0 | 0.0 | 0.00 | 1.63 | 0.64 | 99 | ||
| 20260505053521 | 12 | 0.0 | 0.0 | 0.00 | 1.63 | 0.64 | 99 | ||
| 20260505052517 | 12 | 0.0 | 0.0 | 0.00 | 1.63 | 0.64 | 99 | ||
| 20260505051522 | 12 | 0.0 | 0.0 | 0.00 | 1.63 | 0.64 | 99 | ||
| 20260505050526 | 12 | 0.0 | 0.0 | 0.00 | 1.63 | 0.64 | 99 | ||
| 20260505041519 | 13 | 0.0 | 0.0 | 0.08 | 1.63 | 0.64 | 99 | ||
| 20260505040524 | 13 | 0.0 | 0.0 | 0.08 | 1.63 | 0.64 | 99 | ||
| 20260505035518 | 13 | 0.0 | 0.0 | 0.08 | 1.63 | 0.64 | 99 | ||
| 20260505034524 | 13 | 0.0 | 0.0 | 0.00 | 1.55 | 0.56 | 99 | ||
| 20260505033520 | 13 | 0.0 | 0.0 | 0.00 | 1.55 | 0.56 | 99 | ||
| 20260505032524 | 13 | 0.0 | 0.0 | 0.08 | 1.55 | 0.56 | 99 | ||
| 20260505031520 | 13 | 0.0 | 0.0 | 0.08 | 1.55 | 0.56 | 99 | ||
| 20260505030523 | 13 | 0.0 | 0.0 | 0.08 | 1.55 | 0.56 | 99 | ||
| 20260505025526 | 13 | 0.0 | 0.0 | 0.15 | 1.55 | 0.56 | 99 | ||
| 20260505024520 | 13 | 0.0 | 0.0 | 0.15 | 1.55 | 0.56 | 99 | ||
| 20260505023526 | 13 | 0.0 | 0.0 | 0.20 | 1.55 | 0.56 | 99 | ||
| 20260505022520 | 14 | 0.0 | 0.0 | 0.15 | 1.47 | 0.48 | 99 | ||
| 20260505021526 | 14 | 0.0 | 0.0 | 0.28 | 1.47 | 0.48 | 99 | ||
| 20260505020520 | 14 | 0.0 | 0.0 | 0.28 | 1.47 | 0.48 | 99 | ||
| 20260505015524 | 14 | 0.0 | 0.0 | 0.28 | 1.42 | 0.43 | 99 | ||
| 20260505014519 | 15 | 0.0 | 0.0 | 0.28 | 1.42 | 0.43 | 99 |